STARLINK-5689 (55474 NORAD) Tracking and Keplerian Element Data

This shows tracking and keplerian element data for the satellite.

Feedback or suggestion? Click here.




ElementValue
Catalog55474
NameSTARLINK-5689
Epoch Orbit130
Epoch Day84.91667824
Epoch Year2023
RAAN86.5566
Inclination43.0004
Eccentricity0.0001438
Argument of Perigee270.3093
Mean Anonmoly84.1195
Mean Motion15.04477698
Decay Rate0.00055709
L11 55474U 23015AB 23084.91667824 .00055709 00000+0 38996-2 0 9998
L22 55474 43.0004 86.5566 0001438 270.3093 84.1195 15.04477698 1307



Live tracking and technical data element details for STARLINK-5689 (NORAD 55474). STARLINK-5689 can be tracked NOW for your location showing map with azimuth and elevation plus other details from your city location.







IsCatalogInMostPopularTable: catalog: 55474, numindb: -1

Insert: records affected: 1


GetName: 55474 STARLINK-5689

Hit Count: inserted at: Tue, 28 Mar 2023 02:16:41 GMT